Zurück zum Katalog

SL-14 R/B

AktivPO
NORAD 12786·ROCKET BODY·🇷🇺 Russia

Gestartet Aug 24, 1981 von Plesetsk Cosmodrome

Loading…

Nächste Überflüge (nächste 24 Stunden)

TLE

AktuellSource: Space-Track

Epoche: Sep 14, 2026, 08:05 UTC

1 12786U 81082B   26257.33688791  .00000337  00000-0  34692-4 0  9991
2 12786  82.4897  22.0722 0015228 257.2627 102.6888 14.87273535414904

Verfolge SL-14 R/B in Echtzeit mit AllMySat

Download on the App Store